"Time","Temp","Dewpoint","Humidity","Pressure","Direction","Speed","Gust","Precip","PrecipRate"
"00:04:56","73.1","70.7","92.3","29.98","9","0","0","0.00","0.00"
"00:09:56","73","71","93.2","29.98","5","0","0","0.00","0.00"
"00:14:59","73","71.2","94","29.98","9","0","0","0.00","0.00"
"00:19:58","73.1","71.3","94","29.98","9","0.3","1.2","0.00","0.00"
"00:24:57","73.2","71.4","94","29.98","5","0","0","0.00","0.00"
"00:29:59","73.2","71.3","93.8","29.99","9","0","0","0.00","0.00"
"00:34:58","73.1","71.1","93.3","29.99","9","0","0","0.00","0.00"
"00:39:55","73","71.1","93.4","29.99","9","0","0","0.00","0.00"
"00:44:58","72.8","70.7","93","29.99","9","0","0","0.00","0.00"
"00:49:58","72.7","70.6","93","29.98","9","0","0","0.00","0.00"
"00:54:57","72.5","70.2","92.3","29.98","8","0","1.2","0.00","0.00"
"00:59:56","72.4","69.9","92","29.99","9","0.1","2","0.00","0.00"
"01:04:58","72.4","70","92.4","29.99","8","1","2.3","0.00","0.00"
"01:09:59","72.4","69.7","91.3","29.99","8","0.5","2.3","0.00","0.00"
"01:14:59","72.3","68.9","89.2","29.99","93","0.5","3.5","0.00","0.00"
"01:19:58","72.1","68","87","29.99","126","0.1","3.5","0.00","0.00"
"01:24:57","71.9","67.7","86.6","29.99","124","0.3","2.3","0.00","0.00"
"01:29:56","72","67.7","86.3","29.99","124","0.3","2.3","0.00","0.00"
"01:34:56","71.9","67.7","86.8","29.98","124","0","1.2","0.00","0.00"
"01:39:58","71.7","67.6","87","29.98","124","0","0","0.00","0.00"
"01:44:58","71.6","67.2","86","29.98","124","0","1","0.00","0.00"
"01:49:57","71.3","67.1","86.6","29.98","124","0","1.2","0.00","0.00"
"01:54:56","71.2","67.4","87.9","29.98","124","0","0","0.00","0.00"
"01:59:58","70.9","67.2","88","29.98","124","0","0","0.00","0.00"
"02:04:56","70.6","66.9","88","29.98","124","0","0","0.00","0.00"
"02:09:58","70.4","66.2","86.6","29.98","124","0","0","0.00","0.00"
"02:14:59","70.4","65.8","85.5","29.98","124","0","1.2","0.00","0.00"
"02:19:58","70.4","65.7","85","29.98","124","0","0","0.00","0.00"
"02:24:56","70.4","65.7","84.9","29.98","124","0.1","2.3","0.00","0.00"
"02:29:57","70.4","65.4","84.4","29.98","352","0.5","4","0.00","0.00"
"02:34:59","70.3","65.2","83.8","29.98","321","0.5","3","0.00","0.00"
"02:39:56","70.3","65.3","84.4","29.98","332","0.9","4","0.00","0.00"
"02:44:57","70.2","65","83.9","29.98","318","1.1","3.5","0.00","0.00"
"02:49:59","70.3","65.1","83.8","29.98","305","0.4","3.5","0.00","0.00"
"02:54:57","70.2","65.5","85","29.98","305","0","1.2","0.00","0.00"
"02:59:58","69.9","65.2","85","29.98","304","0.2","2","0.00","0.00"
"03:04:56","69.7","64.6","84.1","29.98","304","0.1","2.3","0.00","0.00"
"03:09:58","69.6","64.4","83.6","29.98","305","0","0","0.00","0.00"
"03:14:59","69.5","64.1","83","29.98","305","0","0","0.00","0.00"
"03:19:57","69.4","64","83","29.98","305","0","1","0.00","0.00"
"03:24:58","69.3","63.8","82.5","29.98","305","0","0","0.00","0.00"
"03:29:56","69.3","63.8","82.7","29.98","305","0","0","0.00","0.00"
"03:34:59","69.2","63.6","82.2","29.97","305","0","0","0.00","0.00"
"03:39:56","69.2","63.5","82","29.97","305","0","0","0.00","0.00"
"03:44:56","69.1","63.5","82.2","29.97","305","0","0","0.00","0.00"
"03:49:58","69","63.8","83.6","29.97","325","0.5","4","0.00","0.00"
"03:54:56","68.7","63.3","83","29.97","334","1","3.5","0.00","0.00"
"03:59:57","68.7","63.4","83.3","29.98","334","0.4","2.3","0.00","0.00"
"04:04:57","68.7","63.7","84.2","29.98","334","0","0","0.00","0.00"
"04:09:59","68.6","63.6","84","29.98","334","0","0","0.00","0.00"
"04:14:56","68.4","63.4","84","29.98","334","0","0","0.00","0.00"
"04:19:57","68.3","63.3","83.9","29.97","334","0","0","0.00","0.00"
"04:24:59","68.2","63.5","84.9","29.97","334","0.1","1.2","0.00","0.00"
"04:29:57","68","64","86.9","29.97","334","0","1","0.00","0.00"
"04:34:59","67.7","63.6","86.8","29.97","334","0.1","1.2","0.00","0.00"
"04:39:56","67.5","63.9","88.5","29.97","334","0","0","0.00","0.00"
"04:44:58","67.3","63.9","89","29.98","334","0","2","0.00","0.00"
"04:49:56","67","63.7","89","29.98","334","0.3","2.3","0.00","0.00"
"04:54:57","66.7","63.7","90","29.98","334","0","0","0.00","0.00"
"04:59:59","66.4","63.3","89.8","29.99","334","0","0","0.00","0.00"
"05:04:57","66.1","63.1","90","29.99","334","0","0","0.00","0.00"
"05:09:59","66","62.8","89.4","29.99","334","0","0","0.00","0.00"
"05:14:59","65.9","62.6","89","29.99","333","0.1","1.2","0.00","0.00"
"05:19:57","65.8","62.5","89","29.98","334","0.8","2.3","0.00","0.00"
"05:24:59","65.6","62.5","89.6","29.98","334","0.5","2.3","0.00","0.00"
"05:29:56","65.6","62.7","90.2","30.00","334","0.2","1.2","0.00","0.00"
"05:34:58","65.6","62.3","89","30.00","334","0","0","0.00","0.00"
"05:39:59","65.6","61.9","88","30.00","334","0","0","0.00","0.00"
"05:44:57","65.7","62","88","30.00","334","0","0","0.00","0.00"
"05:49:59","65.7","61.8","87.3","30.00","334","0","1","0.00","0.00"
"05:54:56","65.6","61.6","87","30.00","336","1.4","4","0.00","0.00"
"05:59:58","65.7","61.7","87","30.00","332","2.3","6","0.00","0.00"
"06:04:56","65.8","62.1","87.9","30.00","328","1.1","3.5","0.00","0.00"
"06:09:59","65.7","61.8","87.3","30.00","347","1.9","5","0.00","0.00"
"06:14:56","65.7","61.7","87","30.01","341","1.8","3.5","0.00","0.00"
"06:19:59","65.7","61.7","87","30.01","339","2.1","5","0.00","0.00"
"06:24:57","65.9","61.6","85.9","30.01","333","2.6","6","0.00","0.00"
"06:29:58","66.2","61.8","85.5","30.02","340","2","6","0.00","0.00"
"06:34:56","66.4","61.7","84.7","30.02","326","2.8","7","0.00","0.00"
"06:39:57","66.7","61.7","84","30.02","339","3","10.4","0.00","0.00"
"06:44:58","66.9","61.7","83.3","30.02","343","2.3","10","0.00","0.00"
"06:49:56","67","61.7","83","30.02","328","1.8","6","0.00","0.00"
"06:54:58","67","61.8","83.3","30.02","323","1.4","6","0.00","0.00"
"06:59:59","66.9","61.3","82.2","30.03","317","2.3","8.1","0.00","0.00"
"07:04:56","66.9","61.2","82","30.03","291","1.9","6","0.00","0.00"
"07:09:58","66.8","61.1","81.9","30.03","305","1.7","6","0.00","0.00"
"07:14:59","66.8","61.1","82","30.03","291","1.6","6","0.00","0.00"
"07:19:56","66.8","61.4","82.7","30.03","332","1.5","4","0.00","0.00"
"07:24:58","66.8","61.3","82.4","30.03","327","2.2","6","0.00","0.00"
"07:29:56","67","61.4","82.3","30.03","339","1.8","4","0.00","0.00"
"07:34:57","67.1","61.3","81.7","30.03","340","1.3","5","0.00","0.00"
"07:39:58","67.4","61.3","80.6","30.03","320","2.2","7","0.00","0.00"
"07:44:59","67.7","61.2","79.8","30.04","350","2.4","5","0.00","0.00"
"07:49:56","68","61.5","79.7","30.04","309","2","5","0.00","0.00"
"07:54:57","68.2","61.4","78.9","30.04","322","2.7","6","0.00","0.00"
"07:59:59","68.4","61.3","78.2","30.04","339","2.1","5","0.00","0.00"
"08:04:56","68.5","61.3","77.8","30.04","332","2.8","9.2","0.00","0.00"
"08:09:58","68.7","61.8","78.7","30.04","354","0.6","4","0.00","0.00"
"08:14:58","68.8","61.4","77.3","30.04","342","2.8","7","0.00","0.00"
"08:19:59","68.8","61.2","76.8","30.04","349","2.3","6.9","0.00","0.00"
"08:24:56","69","61.9","78","30.04","354","1.2","5","0.00","0.00"
"08:29:58","69.3","62","77.6","30.05","331","2.1","6","0.00","0.00"
"08:34:59","69.4","61.9","76.9","30.05","303","1.9","4","0.00","0.00"
"08:39:59","69.6","61.8","76.4","30.05","341","2.8","7","0.00","0.00"
"08:44:59","69.5","61.5","75.8","30.05","179","2.7","6","0.00","0.00"
"08:49:56","69.7","61.5","75.3","30.04","338","2.3","7","0.00","0.00"
"08:52:40","69.8","61.7","75.6","30.04","323","2.5","9.2","0.00","0.00"
"09:14:57","70.6","62","74.2","30.05","331","2.6","9.2","0.00","0.00"
"09:19:59","70.9","62.3","74.2","30.05","343","1.9","7","0.00","0.00"
"09:24:56","71.1","62.1","73.3","30.05","329","2.2","6.9","0.00","0.00"
"09:29:56","71.4","62.6","73.7","30.05","292","1.8","4","0.00","0.00"
"09:34:56","71.6","63","74.4","30.04","312","1.4","4","0.00","0.00"
"09:39:56","71.9","62.5","72.2","30.04","326","2.8","7","0.00","0.00"
"09:44:56","72","62.6","72.3","30.05","335","1.6","6","0.00","0.00"
"09:49:57","72","62.5","72","30.05","285","2.5","6","0.00","0.00"
"09:54:57","72.1","62.7","72.3","30.05","311","2.3","9","0.00","0.00"
"09:59:58","72.3","62.7","71.8","30.05","319","2","7","0.00","0.00"
"10:04:59","72.5","62.6","70.9","30.05","338","2.1","6","0.00","0.00"
"10:09:56","72.5","62.7","71.4","30.05","317","2.3","7","0.00","0.00"
"10:14:56","72.5","63.2","72.5","30.06","321","2.5","7","0.00","0.00"
"10:19:56","72.9","63.6","72.8","30.06","237","2.2","6","0.00","0.00"
"10:24:57","73.1","62.8","70.2","30.06","256","3","10.4","0.00","0.00"
"10:29:58","73","62.7","70.3","30.06","229","1.8","5","0.00","0.00"
"10:34:58","73.2","63","70.5","30.06","334","2","7","0.00","0.00"
"10:39:58","73.4","63","70","30.06","322","2.1","6","0.00","0.00"
"10:44:58","73.7","63.1","69.5","30.06","280","2.2","5","0.00","0.00"
"10:49:59","73.8","63","69.2","30.06","320","2.2","6","0.00","0.00"
"10:54:56","74","62.7","67.9","30.06","324","2.6","5","0.00","0.00"
"10:59:56","74","63.3","69.1","30.06","321","1.7","6","0.00","0.00"
"11:04:57","74.2","63.4","69","30.06","314","2.3","6","0.00","0.00"
"11:09:58","74.5","64.2","70.3","30.06","225","2.9","6","0.00","0.00"
"11:14:58","74.8","63.3","67.6","30.07","304","2.5","5.8","0.00","0.00"
"11:19:58","75.1","64.5","69.8","30.07","281","1.8","5","0.00","0.00"
"11:24:59","75.5","64.8","69.6","30.07","265","2.1","7","0.00","0.00"
"11:29:56","75.7","64","67.1","30.07","316","2.6","8","0.00","0.00"
"11:34:57","75.5","64.1","67.9","30.07","276","2.8","6.9","0.00","0.00"
"11:39:56","75.7","64.4","68","30.07","302","3.4","10.4","0.00","0.00"
"11:44:58","75.8","64.4","67.8","30.07","282","1.9","6.9","0.00","0.00"
"11:49:58","76.1","64.8","67.9","30.07","305","2.7","7","0.00","0.00"
"11:54:59","76.4","64.4","66.3","30.07","327","4.2","14","0.00","0.00"
"11:59:59","76.3","64.2","66.3","30.08","343","3.9","10.4","0.00","0.00"
"12:04:56","76.2","64.2","66.4","30.08","341","3.1","8","0.00","0.00"
"12:09:57","76.3","64.2","66.1","30.08","336","3.4","7","0.00","0.00"
"12:14:58","76.5","64.4","66.3","30.08","330","1.5","4","0.00","0.00"
"12:19:59","76.7","64.9","67.1","30.08","261","2.6","7","0.00","0.00"
"12:24:57","76.6","64.2","65.6","30.08","311","3.1","6","0.00","0.00"
"12:29:59","76.6","65.2","68","30.08","328","2","5","0.00","0.00"
"12:34:57","77.1","64.6","65.5","30.08","346","3.1","9","0.00","0.00"
"12:39:57","77.5","64.9","65.3","30.08","346","1.8","9","0.00","0.00"
"12:44:59","77.7","65.1","65.3","30.08","314","0.8","3.5","0.00","0.00"
"12:49:57","78","65.3","65.1","30.07","327","2.8","6","0.00","0.00"
"12:54:59","78.3","65.4","64.8","30.07","325","2","6","0.00","0.00"
"12:59:57","78.4","65.5","64.5","30.07","298","2.7","6","0.00","0.00"
"13:04:58","78.1","65.3","65","30.07","295","3","6","0.00","0.00"
"13:09:59","78","65.5","65.4","30.07","222","2.9","7","0.00","0.00"
"13:14:57","77.9","65.2","65.1","30.07","219","2.5","6.9","0.00","0.00"
"13:19:59","78.1","65.9","66.2","30.07","197","2.5","7","0.00","0.00"
"13:24:57","78.6","65.7","64.7","30.07","306","2.9","5","0.00","0.00"
"13:29:56","78.9","66.5","65.9","30.07","328","1.8","6","0.00","0.00"
"13:34:56","79.3","66.6","65.1","30.06","335","2.2","5","0.00","0.00"
"13:39:58","79.7","66","63.2","30.06","332","3.1","11","0.00","0.00"
"13:44:58","79.7","65.9","62.9","30.06","285","3.2","7","0.00","0.00"
"13:49:59","79.5","65.7","62.8","30.06","359","2.5","6","0.00","0.00"
"13:54:56","79.7","66.3","63.7","30.06","322","1.4","5","0.00","0.00"
"13:59:56","79.9","66.2","63.1","30.06","187","2.4","6","0.00","0.00"
"14:04:57","80","66.1","62.8","30.06","242","2.2","6","0.00","0.00"
"14:09:59","79.9","64.6","59.7","30.06","329","2.8","6","0.00","0.00"
"14:14:59","79.8","65.6","61.9","30.06","234","1.9","5","0.00","0.00"
"14:19:59","80.2","66.3","62.8","30.05","207","2.4","6","0.00","0.00"
"14:24:56","80.4","66","61.6","30.05","234","2","9","0.00","0.00"
"14:29:57","80.6","65.4","60","30.05","317","2.6","9.2","0.00","0.00"
"14:34:58","80.8","67","62.8","30.05","229","1.1","3.5","0.00","0.00"
"14:39:58","81.3","67.4","62.7","30.05","343","1.6","6","0.00","0.00"
"14:44:58","81.5","66.2","60","30.05","221","2.3","4","0.00","0.00"
"14:49:58","81.2","65.2","58.3","30.05","239","2.9","7","0.00","0.00"
"14:54:58","81","65.5","59.4","30.05","306","2.2","6.9","0.00","0.00"
"14:59:59","81.2","66","60.1","30.05","199","1.7","4","0.00","0.00"
"15:04:55","81.6","67.3","62","30.04","245","2.5","6","0.00","0.00"
"15:09:57","81.9","66.3","59.4","30.04","191","1.5","3.5","0.00","0.00"
"15:14:55","81.9","65.3","57.4","30.04","236","1.2","5","0.00","0.00"
"15:19:55","81.9","64.8","56.3","30.04","302","1.8","5","0.00","0.00"
"15:24:56","82.1","66","58.3","30.04","275","2.3","5","0.00","0.00"
"15:29:59","82.5","66.5","58.6","30.04","232","1.7","5","0.00","0.00"
"15:34:59","82.4","64.9","55.4","30.03","326","2.8","6","0.00","0.00"
"15:39:59","82.3","64.8","55.7","30.03","323","2.3","4.6","0.00","0.00"
"15:44:59","82.2","65.5","57.1","30.03","331","1.1","3.5","0.00","0.00"
"15:49:59","82.5","66.4","58.4","30.03","314","1.8","5","0.00","0.00"
"15:54:59","82.6","64.5","54.4","30.03","293","2.9","5","0.00","0.00"
"15:59:59","82.6","65.1","55.5","30.03","229","1.8","4","0.00","0.00"
"16:04:59","82.8","65.6","56.3","30.02","196","2.7","6","0.00","0.00"
"16:09:57","82.8","64.7","54.7","30.02","209","2.3","5","0.00","0.00"
"16:14:59","82.8","65.1","55.2","30.02","185","1.8","4","0.00","0.00"
"16:19:59","83","65.3","55.5","30.02","330","1.3","5","0.00","0.00"
"16:24:59","83.3","64.9","54.1","30.02","339","1.9","5","0.00","0.00"
"16:29:59","83.4","65.6","55.1","30.02","313","1.7","7","0.00","0.00"
"16:34:59","83.4","64.1","52.2","30.02","285","2.1","5","0.00","0.00"
"16:39:58","83.5","65","53.8","30.02","335","0.3","3.5","0.00","0.00"
"16:44:58","83.6","64.6","52.9","30.02","290","0.4","6","0.00","0.00"
"16:49:58","83.8","64.9","53.3","30.02","293","0.4","5.8","0.00","0.00"
"16:54:59","83.8","63.7","51","30.02","234","0.5","5","0.00","0.00"
"16:59:58","83.5","63.3","50.7","30.02","330","0.6","4","0.00","0.00"
"17:04:56","83.6","64.6","52.9","30.01","219","1.8","5","0.00","0.00"
"17:09:58","83.7","64.4","52.3","30.01","215","1.1","3.5","0.00","0.00"
"17:14:56","83.9","64.5","52.1","30.01","209","0.5","2.3","0.00","0.00"
"17:19:56","84.3","64","50.7","30.01","170","1.5","5","0.00","0.00"
"17:24:56","84.6","64.5","51.2","30.01","274","2.8","6","0.00","0.00"
"17:29:57","84.5","64.5","51.3","30.01","345","2.5","6","0.00","0.00"
"17:34:56","84.5","64.5","51.3","30.00","342","1.2","3.5","0.00","0.00"
"17:39:55","84.5","64.5","51.4","30.00","340","1.5","3.5","0.00","0.00"
"17:44:59","84.4","64.5","51.4","30.00","355","1","4","0.00","0.00"
"17:49:55","84.2","64","51","30.00","343","1.3","4","0.00","0.00"
"17:54:59","84.2","64.3","51.4","30.00","338","0.4","2.3","0.00","0.00"
"17:59:59","84.1","64","51","30.00","337","0.9","3.5","0.00","0.00"
"18:04:56","83.8","63.9","51.2","30.00","323","1.4","5","0.00","0.00"
"18:09:58","83.9","63.5","50.6","30.00","308","0.7","3.5","0.00","0.00"
"18:14:59","83.9","63.9","51.2","30.00","311","0.9","4","0.00","0.00"
"18:19:58","83.7","64.7","52.9","30.00","325","0.3","3.5","0.00","0.00"
"18:24:58","83.5","64.5","53","30.00","349","1.2","4","0.00","0.00"
"18:29:59","83.1","64.2","53.1","30.00","350","0.6","2.3","0.00","0.00"
"18:34:59","82.6","63.8","53.2","29.99","350","0.1","1.2","0.00","0.00"
"18:39:57","82.1","64.5","55.2","29.99","350","0.3","2.3","0.00","0.00"
"18:44:58","81.6","64.5","56.2","29.99","350","0","1.2","0.00","0.00"
"18:49:57","81.3","64.3","56.5","29.99","350","0","0","0.00","0.00"
"18:54:58","81.1","64.1","56.4","29.99","335","1.3","4","0.00","0.00"
"18:59:58","81.1","64","56.1","29.99","348","0","1.2","0.00","0.00"
"19:04:59","81","64.5","57.2","29.99","348","0","0","0.00","0.00"
"19:09:57","80.8","62.8","54.4","29.99","348","0","0","0.00","0.00"
"19:14:56","80.6","64.1","57.2","30.00","38","0","0","0.00","0.00"
"19:19:57","80.3","66.3","62.6","30.00","38","0","0","0.00","0.00"
"19:24:57","79.6","65.8","62.9","30.00","38","0","0","0.00","0.00"
"19:29:57","79.1","64.5","61.1","30.00","38","0","0","0.00","0.00"
"19:34:58","78.9","65.2","63","30.00","21","0","0","0.00","0.00"
"19:39:59","78.6","65.9","65.2","30.00","21","0","0","0.00","0.00"
"19:44:56","78","66.2","67","30.01","28","0","0","0.00","0.00"
"19:49:57","77.3","66.3","68.9","30.01","28","0","0","0.00","0.00"
"19:54:58","76.7","66.5","70.6","30.01","28","0","0","0.00","0.00"
"19:59:59","76.3","66.7","72.4","30.02","72","0","0","0.00","0.00"
"20:04:57","75.9","66.7","73.2","30.02","355","0","0","0.00","0.00"
"20:09:59","75.8","66.2","72.4","30.02","355","0","0","0.00","0.00"
"20:14:59","75.8","64.9","69","30.02","36","0","0","0.00","0.00"
"20:19:57","76.1","64.9","68.2","30.01","51","0","0","0.00","0.00"
"20:24:59","76.5","64.9","67.5","30.01","42","0","0","0.00","0.00"
"20:29:57","76.7","64.6","66.2","30.01","85","0","0","0.00","0.00"
"20:34:59","77.1","65.7","68.1","30.01","85","0","0","0.00","0.00"
"20:39:56","76.8","65.8","68.8","30.01","85","0","0","0.00","0.00"
"20:44:59","76.4","65.5","69","30.02","54","0","0","0.00","0.00"
"20:49:57","76.2","64.9","68.1","30.02","53","0","0","0.00","0.00"
"20:54:56","76.3","64.7","67.5","30.02","232","0","0","0.00","0.00"
"20:59:58","76.3","64.6","67.2","30.02","232","0","0","0.00","0.00"
"21:04:59","76.4","64.7","67.2","30.02","232","0","0","0.00","0.00"
"21:09:57","76.3","66.2","71.1","30.02","232","0","0","0.00","0.00"
"21:14:57","75.7","66.2","72.5","30.02","232","0","0","0.00","0.00"
"21:19:59","75.2","66.2","73.6","30.02","232","0","0","0.00","0.00"
"21:24:57","74.9","66.2","74.5","30.02","232","0","0","0.00","0.00"
"21:29:58","74.4","66","74.8","30.03","232","0","0","0.00","0.00"
"21:34:59","74","65.9","75.8","30.03","232","0","0","0.00","0.00"
"21:39:57","73.6","65.6","76.3","30.03","232","0","0","0.00","0.00"
"21:44:59","73.3","66.1","78.3","30.04","232","0","0","0.00","0.00"
"21:49:56","73.2","66.5","79.6","30.04","232","0","0","0.00","0.00"
"21:54:58","72.8","65.7","78.6","30.04","232","0","0","0.00","0.00"
"21:59:59","72.4","65.1","78","30.04","232","0","0","0.00","0.00"
"22:04:56","72","65.4","79.6","30.04","232","0","0","0.00","0.00"
"22:09:58","71.9","66","81.6","30.04","232","0","0","0.00","0.00"
"22:14:59","71.9","66.6","83.4","30.04","232","0","0","0.00","0.00"
"22:19:56","71.9","66.7","83.7","30.04","232","0","0","0.00","0.00"
"22:24:57","71.7","66.1","82.4","30.04","232","0","0","0.00","0.00"
"22:29:59","71.4","66.1","83.1","30.05","232","0","0","0.00","0.00"
"22:34:57","71.3","66.2","84","30.05","232","0","0","0.00","0.00"
"22:39:57","71.2","66.1","84.2","30.05","232","0","0","0.00","0.00"
"22:44:59","71.1","66.4","85","30.05","232","0","0","0.00","0.00"
"22:49:59","71.1","66.7","86","30.05","232","0","0","0.00","0.00"
"22:54:57","71.2","67","86.4","30.05","232","0","0","0.00","0.00"
"22:59:59","71.4","67.3","87","30.05","232","0","0","0.00","0.00"
"23:04:56","71.6","67.7","87.4","30.04","232","0","0","0.00","0.00"
"23:09:59","71.7","67.6","87","30.04","232","0","0","0.00","0.00"
"23:14:59","71.7","67.5","86.8","30.04","232","0","0","0.00","0.00"
"23:19:56","71.7","67.5","86.7","30.04","232","0","0","0.00","0.00"
"23:24:58","71.6","67.4","86.7","30.04","232","0","0","0.00","0.00"
"23:29:59","71.5","67.1","86.3","30.05","232","0","0","0.00","0.00"
"23:34:56","71.4","67.3","87","30.05","232","0","0","0.00","0.00"
"23:39:57","71.4","67.3","87","30.05","232","0","0","0.00","0.00"
"23:44:58","71.4","67.9","88.7","30.05","232","0","0","0.00","0.00"
"23:49:59","71.5","67.8","88.1","30.05","232","0","0","0.00","0.00"
"23:54:57","71.6","68.1","88.5","30.05","232","0","0","0.00","0.00"
"23:59:58","71.7","68","88","30.05","232","0","0","0.00","0.00"
